Hanford, WA
on Thursday, February 14, 2013

Thursday
Previous Day Next Day
Daily Summary
 ActualAverage (KMWH)Record (KMWH)
Temperature
Mean Temperature °F 35°F  
Max Temperature 54°F 43°F 54°F (2014)
Min Temperature 31°F 27°F 17°F (1980)
Degree Days
Heating Degree Days 20 30  
Month to date heating degree days 439  
Since 1 July heating degree days 4113  
Cooling Degree Days 0 0  
Month to date cooling degree days 0  
Year to date cooling degree days 0  
Moisture
Dew Point 30°F   
Average Humidity 63    
Maximum Humidity 88    
Minimum Humidity 41    
Precipitation
Precipitation 0.00 in 0.02 in 0.70 in (1981)
Month to date precipitation 0.45  
Year to date precipitation 1.59  
Wind
Wind Speed 7 mph   
Max Wind Speed 12 mph   
Max Gust Speed mph   
Visibility 15 miles   
Events     

Key: T is trace of precipitation, MM is missing value
Source: NWS Daily Summary
Time(PST)TemperatureDew PointHumidity Pressure Visibility Wind DirectionWind SpeedGust SpeedPrecipitationEvents Conditions
12:50 AM 39.6°F 27.7°F 62% 30.40 in 15.0 miles West 10.4 mph - N/A   Clear
1:50 AM 41.0°F 29.7°F 64% 30.41 in 15.0 miles WNW 11.5 mph - N/A   Clear
2:50 AM 41.4°F 29.1°F 62% 30.43 in 15.0 miles West 9.2 mph - N/A   Partly Cloudy
3:50 AM 37.9°F 29.5°F 72% 30.43 in 15.0 miles WNW 8.1 mph - N/A   Clear
4:50 AM 37.0°F 29.5°F 74% 30.44 in 15.0 miles WSW 5.8 mph - N/A   Mostly Cloudy
5:50 AM 36.3°F 27.1°F 69% 30.45 in 15.0 miles West 4.6 mph - N/A   Overcast
6:50 AM 35.2°F 28.2°F 76% 30.46 in 15.0 miles South 2.3 mph - N/A   Overcast
7:50 AM 35.1°F 29.5°F 80% 30.46 in 15.0 miles North 3.5 mph - N/A   Overcast
8:50 AM 37.8°F 30.4°F 75% 30.48 in 15.0 miles NE 3.5 mph - N/A   Overcast
9:50 AM 41.5°F 31.1°F 66% 30.49 in 15.0 miles East 4.6 mph - N/A   Overcast
10:50 AM 46.9°F 32.0°F 56% 30.49 in 15.0 miles East 4.6 mph - N/A   Mostly Cloudy
11:50 AM 50.5°F 32.0°F 49% 30.51 in 15.0 miles NE 4.6 mph - N/A   Mostly Cloudy
12:50 PM 52.3°F 32.0°F 46% 30.50 in 15.0 miles SSE 6.9 mph - N/A   Partly Cloudy
1:50 PM 53.6°F 32.2°F 44% 30.49 in 15.0 miles SSE 4.6 mph - N/A   Partly Cloudy
2:50 PM 54.0°F 30.7°F 41% 30.49 in 15.0 miles SSE 5.8 mph - N/A   Partly Cloudy
3:50 PM 52.9°F 30.0°F 42% 30.47 in 15.0 miles SE 4.6 mph - N/A   Mostly Cloudy
4:50 PM 51.3°F 32.4°F 48% 30.46 in 15.0 miles SE 4.6 mph - N/A   Overcast
5:50 PM 43.3°F 31.3°F 62% 30.47 in 15.0 miles SE 4.6 mph - N/A   Overcast
6:50 PM 42.4°F 31.1°F 64% 30.47 in 15.0 miles SE 3.5 mph - N/A   Overcast
10:50 PM 36.5°F 30.7°F 80% 30.52 in 15.0 miles West 5.8 mph - N/A   Mostly Cloudy
11:50 PM 31.8°F 28.8°F 88% 30.53 in 15.0 miles NNW 4.6 mph - N/A   Scattered Clouds
Moon Phase
Feb. 14 Feb. 17 Feb. 25 Mar. 04 Mar. 11
Sunrise:07:03 AM (PST) Moon Rise:08:47 AM (PST)2/14
Sunset:05:22 PM (PST) Moon Set:10:53 PM (PST)2/14

Copyright © 2014 The Weather Underground, Inc.